| time (UTC) | temp F | wind direction | speed MPH | gust MPH | rain 1hr in | rain 24hr in | rain mn in | humidity % | barometer mb |
| 20260831000012 | 73 | 188 | 7.0 | 13.0 | 0.00 | 0.28 | 0.28 | 86 | 1010.7 |
| 20260830234513 | 73 | 169 | 8.0 | 13.0 | 0.00 | 0.28 | 0.28 | 86 | 1010.7 |
| 20260830233011 | 73 | 180 | 5.0 | 14.0 | 0.00 | 0.28 | 0.28 | 86 | 1010.7 |
| 20260830231513 | 73 | 172 | 9.0 | 16.0 | 0.00 | 0.28 | 0.28 | 87 | 1010.3 |
| 20260830230015 | 73 | 188 | 6.0 | 14.0 | 0.00 | 0.28 | 0.28 | 87 | 1010.5 |
| 20260830224509 | 73 | 178 | 7.0 | 13.0 | 0.00 | 0.28 | 0.28 | 88 | 1010.5 |
| 20260830223009 | 74 | 206 | 6.0 | 12.0 | 0.01 | 0.28 | 0.28 | 88 | 1010.4 |
| 20260830221509 | 74 | 169 | 6.0 | 10.0 | 0.07 | 0.28 | 0.28 | 90 | 1010.4 |
| 20260830220008 | 74 | 200 | 6.0 | 14.0 | 0.07 | 0.28 | 0.28 | 89 | 1010.3 |
| 20260830214507 | 73 | 196 | 6.0 | 12.0 | 0.08 | 0.28 | 0.28 | 92 | 1010.0 |
| 20260830213026 | 72 | 185 | 6.0 | 16.0 | 0.18 | 0.27 | 0.27 | 92 | 1009.8 |
| 20260830211504 | 72 | 172 | 6.0 | 11.0 | 0.21 | 0.21 | 0.21 | 92 | 1010.0 |
| 20260830210003 | 72 | 216 | 4.0 | 10.0 | 0.21 | 0.21 | 0.21 | 92 | 1010.4 |
| 20260830204503 | 72 | 223 | 6.0 | 10.0 | 0.19 | 0.19 | 0.19 | 91 | 1010.1 |
| 20260830203006 | 73 | 184 | 5.0 | 10.0 | 0.08 | 0.08 | 0.08 | 89 | 1009.8 |
| 20260830201602 | 74 | 250 | 6.0 | 12.0 | 0.00 | 0.00 | 0.00 | 86 | 1011.0 |
| 20260830200106 | 77 | 234 | 7.0 | 11.0 | 0.00 | 0.00 | 0.00 | 83 | 1010.9 |
| 20260830194604 | 78 | 227 | 5.0 | 10.0 | 0.00 | 0.00 | 0.00 | 82 | 1010.4 |
| 20260830193127 | 79 | 223 | 8.0 | 12.0 | 0.00 | 0.00 | 0.00 | 78 | 1010.6 |
| 20260830191555 | 78 | 224 | 7.0 | 11.0 | 0.00 | 0.00 | 0.00 | 80 | 1010.7 |
| 20260830190052 | 78 | 197 | 5.0 | 12.0 | 0.00 | 0.00 | 0.00 | 82 | 1010.7 |
| 20260830184551 | 77 | 192 | 8.0 | 13.0 | 0.00 | 0.00 | 0.00 | 82 | 1010.8 |
| 20260830183050 | 77 | 198 | 5.0 | 11.0 | 0.00 | 0.00 | 0.00 | 82 | 1010.5 |
| 20260830181549 | 77 | 206 | 7.0 | 11.0 | 0.00 | 0.00 | 0.00 | 82 | 1010.7 |
| 20260830180048 | 76 | 214 | 8.0 | 15.0 | 0.00 | 0.00 | 0.00 | 82 | 1010.6 |
| 20260830174552 | 76 | 225 | 8.0 | 15.0 | 0.00 | 0.00 | 0.00 | 84 | 1011.0 |
| 20260830173104 | 76 | 206 | 3.0 | 5.0 | 0.00 | 0.00 | 0.00 | 85 | 1010.7 |
| 20260830171545 | 75 | 201 | 2.0 | 4.0 | 0.00 | 0.00 | 0.00 | 85 | 1010.5 |
| 20260830170045 | 74 | 201 | 2.0 | 3.0 | 0.00 | 0.00 | 0.00 | 86 | 1010.7 |
| 20260830164547 | 73 | 201 | 0.0 | 4.0 | 0.00 | 0.00 | 0.00 | 86 | 1010.8 |
| 20260830163044 | 73 | 209 | 3.0 | 8.0 | 0.00 | 0.00 | 0.00 | 85 | 1010.9 |
| 20260830161543 | 74 | 229 | 4.0 | 9.0 | 0.00 | 0.00 | 0.00 | 85 | 1011.3 |
| 20260830160042 | 74 | 235 | 5.0 | 17.0 | 0.00 | 0.00 | 0.00 | 83 | 1011.3 |
| 20260830154542 | 76 | 242 | 9.0 | 16.0 | 0.00 | 0.00 | 0.00 | 81 | 1011.2 |
| 20260830153039 | 76 | 234 | 7.0 | 12.0 | 0.00 | 0.00 | 0.00 | 84 | 1010.1 |
| 20260830151536 | 75 | 219 | 5.0 | 11.0 | 0.00 | 0.00 | 0.00 | 83 | 1009.6 |
| 20260830150036 | 74 | 226 | 6.0 | 10.0 | 0.00 | 0.00 | 0.00 | 84 | 1009.8 |
| 20260830144536 | 74 | 201 | 5.0 | 9.0 | 0.00 | 0.01 | 0.00 | 85 | 1009.7 |
| 20260830143036 | 73 | 216 | 5.0 | 8.0 | 0.00 | 0.01 | 0.00 | 86 | 1009.5 |
| 20260830141521 | 73 | 215 | 3.0 | 8.0 | 0.00 | 0.01 | 0.00 | 87 | 1009.7 |
| 20260830140019 | 72 | 218 | 5.0 | 7.0 | 0.00 | 0.01 | 0.00 | 88 | 1009.9 |
| 20260830134524 | 71 | 227 | 3.0 | 7.0 | 0.00 | 0.18 | 0.00 | 89 | 1009.7 |
| 20260830133012 | 71 | 228 | 4.0 | 9.0 | 0.00 | 0.18 | 0.00 | 89 | 1010.0 |
| 20260830131523 | 71 | 211 | 5.0 | 9.0 | 0.00 | 0.18 | 0.00 | 89 | 1009.9 |
| 20260830130007 | 69 | 211 | 4.0 | 10.0 | 0.00 | 0.18 | 0.00 | 91 | 1009.9 |
| 20260830124504 | 69 | 197 | 5.0 | 10.0 | 0.00 | 0.36 | 0.00 | 91 | 1009.8 |
| 20260830123001 | 68 | 197 | 6.0 | 9.0 | 0.00 | 0.36 | 0.00 | 92 | 1009.7 |
| 20260830121601 | 68 | 190 | 5.0 | 10.0 | 0.00 | 0.36 | 0.00 | 92 | 1009.9 |
| 20260830120055 | 68 | 210 | 3.0 | 9.0 | 0.00 | 0.36 | 0.00 | 93 | 1009.8 |
| 20260830114608 | 68 | 203 | 3.0 | 6.0 | 0.00 | 0.43 | 0.00 | 92 | 1009.9 |
| 20260830113049 | 68 | 200 | 3.0 | 7.0 | 0.00 | 0.43 | 0.00 | 92 | 1010.0 |
| 20260830111548 | 68 | 211 | 4.0 | 8.0 | 0.00 | 0.43 | 0.00 | 92 | 1010.1 |
| 20260830110047 | 68 | 211 | 4.0 | 8.0 | 0.00 | 0.43 | 0.00 | 93 | 1010.0 |
| 20260830104554 | 68 | 211 | 4.0 | 8.0 | 0.00 | 0.46 | 0.00 | 93 | 1010.1 |
| 20260830103051 | 68 | 211 | 4.0 | 7.0 | 0.00 | 0.46 | 0.00 | 92 | 1010.1 |
| 20260830101543 | 68 | 208 | 4.0 | 8.0 | 0.00 | 0.46 | 0.00 | 92 | 1010.3 |
| 20260830100043 | 68 | 186 | 4.0 | 8.0 | 0.00 | 0.46 | 0.00 | 92 | 1010.1 |
| 20260830094640 | 68 | 192 | 5.0 | 8.0 | 0.00 | 0.46 | 0.00 | 92 | 1010.1 |
| 20260830093053 | 68 | 194 | 6.0 | 8.0 | 0.00 | 0.46 | 0.00 | 92 | 1010.2 |
| 20260830091538 | 68 | 194 | 4.0 | 10.0 | 0.00 | 0.46 | 0.00 | 92 | 1010.1 |
| 20260830090037 | 69 | 197 | 5.0 | 10.0 | 0.00 | 0.46 | 0.00 | 92 | 1010.2 |
| 20260830084535 | 68 | 178 | 5.0 | 9.0 | 0.00 | 0.46 | 0.00 | 93 | 1010.2 |
| 20260830083032 | 68 | 184 | 3.0 | 7.0 | 0.00 | 0.46 | 0.00 | 93 | 1010.4 |
| 20260830081532 | 68 | 181 | 3.0 | 6.0 | 0.00 | 0.46 | 0.00 | 93 | 1010.6 |
| 20260830080031 | 68 | 183 | 2.0 | 4.0 | 0.00 | 0.46 | 0.00 | 92 | 1010.8 |
| 20260830074528 | 69 | 184 | 3.0 | 6.0 | 0.00 | 0.46 | 0.00 | 92 | 1010.8 |
| 20260830073032 | 69 | 182 | 3.0 | 6.0 | 0.00 | 0.46 | 0.00 | 92 | 1010.6 |
| 20260830071537 | 69 | 180 | 3.0 | 7.0 | 0.00 | 0.46 | 0.00 | 92 | 1010.6 |
| 20260830070024 | 69 | 178 | 3.0 | 5.0 | 0.00 | 0.46 | 0.00 | 92 | 1010.6 |
| 20260830064525 | 69 | 178 | 2.0 | 6.0 | 0.00 | 0.46 | 0.00 | 91 | 1010.8 |
| 20260830063021 | 69 | 180 | 2.0 | 6.0 | 0.00 | 0.46 | 0.00 | 91 | 1011.0 |
| 20260830061519 | 69 | 173 | 4.0 | 7.0 | 0.00 | 0.46 | 0.00 | 91 | 1011.2 |
| 20260830060018 | 69 | 174 | 3.0 | 5.0 | 0.00 | 0.46 | 0.00 | 91 | 1011.2 |
| 20260830054516 | 70 | 157 | 3.0 | 7.0 | 0.00 | 0.46 | 0.00 | 91 | 1011.3 |
| 20260830053015 | 70 | 176 | 3.0 | 8.0 | 0.00 | 0.46 | 0.00 | 90 | 1011.4 |
| 20260830051514 | 70 | 71 | 1.0 | 8.0 | 0.00 | 0.46 | 0.00 | 90 | 1011.4 |
| 20260830050011 | 70 | 182 | 4.0 | 8.0 | 0.00 | 0.46 | 0.00 | 90 | 1011.4 |
| 20260830044515 | 70 | 182 | 4.0 | 9.0 | 0.00 | 0.46 | 0.46 | 91 | 1011.4 |
| 20260830043011 | 70 | 169 | 4.0 | 7.0 | 0.00 | 0.46 | 0.46 | 91 | 1011.7 |
| 20260830041513 | 70 | 159 | 5.0 | 9.0 | 0.00 | 0.46 | 0.46 | 90 | 1011.9 |
| 20260830040009 | 70 | 157 | 4.0 | 8.0 | 0.00 | 0.46 | 0.46 | 90 | 1012.0 |
| 20260830034509 | 70 | 184 | 4.0 | 9.0 | 0.00 | 0.46 | 0.46 | 89 | 1012.1 |
| 20260830033008 | 70 | 154 | 5.0 | 9.0 | 0.00 | 0.46 | 0.46 | 89 | 1012.1 |
| 20260830031512 | 70 | 148 | 5.0 | 10.0 | 0.00 | 0.46 | 0.46 | 88 | 1012.2 |
| 20260830030008 | 71 | 162 | 5.0 | 10.0 | 0.00 | 0.46 | 0.46 | 88 | 1012.1 |
| 20260830024506 | 70 | 147 | 4.0 | 8.0 | 0.00 | 0.46 | 0.46 | 88 | 1012.2 |
| 20260830023006 | 70 | 138 | 3.0 | 9.0 | 0.00 | 0.46 | 0.46 | 87 | 1012.1 |
| 20260830021506 | 70 | 153 | 3.0 | 8.0 | 0.00 | 0.46 | 0.46 | 88 | 1012.0 |
| 20260830020005 | 70 | 157 | 3.0 | 7.0 | 0.00 | 0.46 | 0.46 | 88 | 1011.9 |
| 20260830014504 | 69 | 170 | 3.0 | 5.0 | 0.00 | 0.46 | 0.46 | 89 | 1011.7 |
| 20260830013004 | 69 | 170 | 3.0 | 5.0 | 0.00 | 0.46 | 0.46 | 88 | 1011.5 |
| 20260830011503 | 70 | 155 | 2.0 | 7.0 | 0.00 | 0.46 | 0.46 | 87 | 1011.2 |
| 20260830010002 | 71 | 181 | 2.0 | 8.0 | 0.00 | 0.46 | 0.46 | 85 | 1011.2 |
| 20260830004501 | 71 | 184 | 4.0 | 8.0 | 0.00 | 0.46 | 0.46 | 85 | 1011.2 |
| 20260830003001 | 72 | 180 | 4.0 | 7.0 | 0.00 | 0.46 | 0.46 | 84 | 1011.4 |
| 20260830001600 | 72 | 192 | 4.0 | 8.0 | 0.00 | 0.46 | 0.46 | 83 | 1011.5 |